Year,Month,Day,Hour,Minute,Value (Times are PST for temperature in C)
2015,07,04,00,00,22.90
2015,07,04,00,01,22.90
2015,07,04,00,02,22.90
2015,07,04,00,03,22.90
2015,07,04,00,04,22.90
2015,07,04,00,05,22.90
2015,07,04,00,06,22.90
2015,07,04,00,07,22.90
2015,07,04,00,08,22.90
2015,07,04,00,09,22.90
2015,07,04,00,10,23.00
2015,07,04,00,11,23.00
2015,07,04,00,12,23.10
2015,07,04,00,13,23.10
2015,07,04,00,14,23.20
2015,07,04,00,15,23.20
2015,07,04,00,16,23.20
2015,07,04,00,17,23.20
2015,07,04,00,18,23.20
2015,07,04,00,19,23.20
2015,07,04,00,20,23.20
2015,07,04,00,21,23.20
2015,07,04,00,22,23.10
2015,07,04,00,23,23.10
2015,07,04,00,24,23.10
2015,07,04,00,25,23.00
2015,07,04,00,26,23.00
2015,07,04,00,27,22.90
2015,07,04,00,28,22.90
2015,07,04,00,29,22.90
2015,07,04,00,30,22.80
2015,07,04,00,31,22.80
2015,07,04,00,32,22.80
2015,07,04,00,33,22.80
2015,07,04,00,34,22.70
2015,07,04,00,35,22.70
2015,07,04,00,36,22.70
2015,07,04,00,37,22.70
2015,07,04,00,38,22.70
2015,07,04,00,39,22.70
2015,07,04,00,40,22.70
2015,07,04,00,41,22.70
2015,07,04,00,42,22.70
2015,07,04,00,43,22.70
2015,07,04,00,44,22.70
2015,07,04,00,45,22.70
2015,07,04,00,46,22.70
2015,07,04,00,47,22.70
2015,07,04,00,48,22.70
2015,07,04,00,49,22.70
2015,07,04,00,50,22.70
2015,07,04,00,51,22.70
2015,07,04,00,52,22.70
2015,07,04,00,53,22.60
2015,07,04,00,54,22.60
2015,07,04,00,55,22.60
2015,07,04,00,56,22.50
2015,07,04,00,57,22.50
2015,07,04,00,58,22.50
2015,07,04,00,59,22.40
2015,07,04,01,00,22.40
2015,07,04,01,01,22.40
2015,07,04,01,02,22.40
2015,07,04,01,03,22.40
2015,07,04,01,04,22.30
2015,07,04,01,05,22.30
2015,07,04,01,06,22.30
2015,07,04,01,07,22.30
2015,07,04,01,08,22.20
2015,07,04,01,09,22.20
2015,07,04,01,10,22.20
2015,07,04,01,11,22.20
2015,07,04,01,12,22.10
2015,07,04,01,13,22.10
2015,07,04,01,14,22.20
2015,07,04,01,15,22.20
2015,07,04,01,16,22.20
2015,07,04,01,17,22.20
2015,07,04,01,18,22.30
2015,07,04,01,19,22.30
2015,07,04,01,20,22.30
2015,07,04,01,21,22.30
2015,07,04,01,22,22.40
2015,07,04,01,23,22.40
2015,07,04,01,24,22.40
2015,07,04,01,25,22.40
2015,07,04,01,26,22.40
2015,07,04,01,27,22.50
2015,07,04,01,28,22.50
2015,07,04,01,29,22.50
2015,07,04,01,30,22.60
2015,07,04,01,31,22.60
2015,07,04,01,32,22.60
2015,07,04,01,33,22.60
2015,07,04,01,34,22.60
2015,07,04,01,35,22.60
2015,07,04,01,36,22.60
2015,07,04,01,37,22.60
2015,07,04,01,38,22.60
2015,07,04,01,39,22.60
2015,07,04,01,40,22.60
2015,07,04,01,41,22.50
2015,07,04,01,42,22.50
2015,07,04,01,43,22.50
2015,07,04,01,44,22.50
2015,07,04,01,45,22.50
2015,07,04,01,46,22.50
2015,07,04,01,47,22.50
2015,07,04,01,48,22.60
2015,07,04,01,49,22.60
2015,07,04,01,50,22.60
2015,07,04,01,51,22.60
2015,07,04,01,52,22.60
2015,07,04,01,53,22.70
2015,07,04,01,54,22.70
2015,07,04,01,55,22.70
2015,07,04,01,56,22.70
2015,07,04,01,57,22.70
2015,07,04,01,58,22.70
2015,07,04,01,59,22.70
2015,07,04,02,00,22.60
2015,07,04,02,01,22.60
2015,07,04,02,02,22.60
2015,07,04,02,03,22.60
2015,07,04,02,04,22.50
2015,07,04,02,05,22.50
2015,07,04,02,06,22.50
2015,07,04,02,07,22.40
2015,07,04,02,08,22.40
2015,07,04,02,09,22.40
2015,07,04,02,10,22.40
2015,07,04,02,11,22.40
2015,07,04,02,12,22.30
2015,07,04,02,13,22.30
2015,07,04,02,14,22.30
2015,07,04,02,15,22.20
2015,07,04,02,16,22.20
2015,07,04,02,17,22.20
2015,07,04,02,18,22.20
2015,07,04,02,19,22.20
2015,07,04,02,20,22.20
2015,07,04,02,21,22.20
2015,07,04,02,22,22.20
2015,07,04,02,23,22.20
2015,07,04,02,24,22.20
2015,07,04,02,25,22.20
2015,07,04,02,26,22.30
2015,07,04,02,27,22.30
2015,07,04,02,28,22.30
2015,07,04,02,29,22.40
2015,07,04,02,30,22.30
2015,07,04,02,31,22.40
2015,07,04,02,32,22.40
2015,07,04,02,33,22.40
2015,07,04,02,34,22.40
2015,07,04,02,35,22.40
2015,07,04,02,36,22.40
2015,07,04,02,37,22.40
2015,07,04,02,38,22.40
2015,07,04,02,39,22.40
2015,07,04,02,40,22.40
2015,07,04,02,41,22.40
2015,07,04,02,42,22.40
2015,07,04,02,43,22.40
2015,07,04,02,44,22.40
2015,07,04,02,45,22.40
2015,07,04,02,46,22.50
2015,07,04,02,47,22.50
2015,07,04,02,48,22.50
2015,07,04,02,49,22.50
2015,07,04,02,50,22.40
2015,07,04,02,51,22.40
2015,07,04,02,52,22.40
2015,07,04,02,53,22.40
2015,07,04,02,54,22.40
2015,07,04,02,55,22.40
2015,07,04,02,56,22.30
2015,07,04,02,57,22.30
2015,07,04,02,58,22.30
2015,07,04,02,59,22.30
2015,07,04,03,00,22.30
2015,07,04,03,01,22.30
2015,07,04,03,02,22.20
2015,07,04,03,03,22.20
2015,07,04,03,04,22.20
2015,07,04,03,05,22.20
2015,07,04,03,06,22.20
2015,07,04,03,07,22.20
2015,07,04,03,08,22.20
2015,07,04,03,09,22.20
2015,07,04,03,10,22.20
2015,07,04,03,11,22.20
2015,07,04,03,12,22.20
2015,07,04,03,13,22.20
2015,07,04,03,14,22.20
2015,07,04,03,15,22.20
2015,07,04,03,16,22.10
2015,07,04,03,17,22.10
2015,07,04,03,18,22.10
2015,07,04,03,19,22.10
2015,07,04,03,20,22.10
2015,07,04,03,21,22.10
2015,07,04,03,22,22.10
2015,07,04,03,23,22.10
2015,07,04,03,24,22.10
2015,07,04,03,25,22.10
2015,07,04,03,26,22.10
2015,07,04,03,27,22.10
2015,07,04,03,28,22.10
2015,07,04,03,29,22.10
2015,07,04,03,30,22.00
2015,07,04,03,31,22.00
2015,07,04,03,32,21.90
2015,07,04,03,33,21.90
2015,07,04,03,34,21.90
2015,07,04,03,35,21.90
2015,07,04,03,36,21.90
2015,07,04,03,37,21.80
2015,07,04,03,38,21.80
2015,07,04,03,39,21.80
2015,07,04,03,40,21.70
2015,07,04,03,41,21.70
2015,07,04,03,42,21.70
2015,07,04,03,43,21.70
2015,07,04,03,44,21.70
2015,07,04,03,45,21.70
2015,07,04,03,46,21.70
2015,07,04,03,47,21.70
2015,07,04,03,48,21.70
2015,07,04,03,49,21.70
2015,07,04,03,50,21.70
2015,07,04,03,51,21.70
2015,07,04,03,52,21.70
2015,07,04,03,53,21.70
2015,07,04,03,54,21.70
2015,07,04,03,55,21.70
2015,07,04,03,56,21.70
2015,07,04,03,57,21.60
2015,07,04,03,58,21.60
2015,07,04,03,59,21.60
2015,07,04,04,00,21.60
2015,07,04,04,01,21.60
2015,07,04,04,02,21.50
2015,07,04,04,03,21.50
2015,07,04,04,04,21.40
2015,07,04,04,05,21.40
2015,07,04,04,06,21.30
2015,07,04,04,07,21.20
2015,07,04,04,08,21.20
2015,07,04,04,09,21.10
2015,07,04,04,10,21.00
2015,07,04,04,11,20.90
2015,07,04,04,12,20.90
2015,07,04,04,13,20.90
2015,07,04,04,14,20.80
2015,07,04,04,15,20.80
2015,07,04,04,16,20.80
2015,07,04,04,17,20.80
2015,07,04,04,18,20.80
2015,07,04,04,19,20.90
2015,07,04,04,20,20.90
2015,07,04,04,21,20.90
2015,07,04,04,22,21.00
2015,07,04,04,23,21.00
2015,07,04,04,24,21.10
2015,07,04,04,25,21.10
2015,07,04,04,26,21.20
2015,07,04,04,27,21.20
2015,07,04,04,28,21.20
2015,07,04,04,29,21.20
2015,07,04,04,30,21.20
2015,07,04,04,31,21.30
2015,07,04,04,32,21.30
2015,07,04,04,33,21.30
2015,07,04,04,34,21.30
2015,07,04,04,35,21.20
2015,07,04,04,36,21.20
2015,07,04,04,37,21.30
2015,07,04,04,38,21.30
2015,07,04,04,39,21.30
2015,07,04,04,40,21.30
2015,07,04,04,41,21.30
2015,07,04,04,42,21.30
2015,07,04,04,43,21.30
2015,07,04,04,44,21.30
2015,07,04,04,45,21.30
2015,07,04,04,46,21.30
2015,07,04,04,47,21.30
2015,07,04,04,48,21.30
2015,07,04,04,49,21.20
2015,07,04,04,50,21.20
2015,07,04,04,51,21.20
2015,07,04,04,52,21.20
2015,07,04,04,53,21.10
2015,07,04,04,54,21.10
2015,07,04,04,55,21.00
2015,07,04,04,56,21.00
2015,07,04,04,57,20.90
2015,07,04,04,58,20.90
2015,07,04,04,59,20.80
2015,07,04,05,00,20.80
2015,07,04,05,01,20.80
2015,07,04,05,02,20.70
2015,07,04,05,03,20.70
2015,07,04,05,04,20.70
2015,07,04,05,05,20.70
2015,07,04,05,06,20.60
2015,07,04,05,07,20.60
2015,07,04,05,08,20.60
2015,07,04,05,09,20.60
2015,07,04,05,10,20.50
2015,07,04,05,11,20.50
2015,07,04,05,12,20.40
2015,07,04,05,13,20.40
2015,07,04,05,14,20.40
2015,07,04,05,15,20.30
2015,07,04,05,16,20.40
2015,07,04,05,17,20.40
2015,07,04,05,18,20.40
2015,07,04,05,19,20.30
2015,07,04,05,20,20.30
2015,07,04,05,21,20.30
2015,07,04,05,22,20.30
2015,07,04,05,23,20.30
2015,07,04,05,24,20.30
2015,07,04,05,25,20.30
2015,07,04,05,26,20.30
2015,07,04,05,27,20.30
2015,07,04,05,28,20.30
2015,07,04,05,29,20.40
2015,07,04,05,30,20.40
2015,07,04,05,31,20.40
2015,07,04,05,32,20.40
2015,07,04,05,33,20.50
2015,07,04,05,34,20.50
2015,07,04,05,35,20.50
2015,07,04,05,36,20.50
2015,07,04,05,37,20.50
2015,07,04,05,38,20.50
2015,07,04,05,39,20.50
2015,07,04,05,40,20.50
2015,07,04,05,41,20.50
2015,07,04,05,42,20.60
2015,07,04,05,43,20.60
2015,07,04,05,44,20.60
2015,07,04,05,45,20.70
2015,07,04,05,46,20.70
2015,07,04,05,47,20.70
2015,07,04,05,48,20.70
2015,07,04,05,49,20.70
2015,07,04,05,50,20.80
2015,07,04,05,51,20.80
2015,07,04,05,52,20.80
2015,07,04,05,53,20.80
2015,07,04,05,54,20.90
2015,07,04,05,55,20.90
2015,07,04,05,56,20.90
2015,07,04,05,57,20.90
2015,07,04,05,58,20.90
2015,07,04,05,59,20.90
2015,07,04,06,00,20.90
2015,07,04,06,01,20.90
2015,07,04,06,02,21.00
2015,07,04,06,03,21.00
2015,07,04,06,04,21.00
2015,07,04,06,05,21.00
2015,07,04,06,06,21.00
2015,07,04,06,07,21.00
2015,07,04,06,08,21.00
2015,07,04,06,09,21.00
2015,07,04,06,10,21.00
2015,07,04,06,11,20.90
2015,07,04,06,12,20.90
2015,07,04,06,13,20.90
2015,07,04,06,14,21.00
2015,07,04,06,15,21.00
2015,07,04,06,16,21.10
2015,07,04,06,17,21.10
2015,07,04,06,18,21.10
2015,07,04,06,19,21.20
2015,07,04,06,20,21.20
2015,07,04,06,21,21.20
2015,07,04,06,22,21.20
2015,07,04,06,23,21.20
2015,07,04,06,24,21.20
2015,07,04,06,25,21.20
2015,07,04,06,26,21.20
2015,07,04,06,27,21.20
2015,07,04,06,28,21.30
2015,07,04,06,29,21.30
2015,07,04,06,30,21.30
2015,07,04,06,31,21.30
2015,07,04,06,32,21.30
2015,07,04,06,33,21.40
2015,07,04,06,34,21.40
2015,07,04,06,35,21.40
2015,07,04,06,36,21.40
2015,07,04,06,37,21.40
2015,07,04,06,38,21.40
2015,07,04,06,39,21.40
2015,07,04,06,40,21.40
2015,07,04,06,41,21.40
2015,07,04,06,42,21.40
2015,07,04,06,43,21.40
2015,07,04,06,44,21.40
2015,07,04,06,45,21.40
2015,07,04,06,46,21.40
2015,07,04,06,47,21.40
2015,07,04,06,48,21.40
2015,07,04,06,49,21.40
2015,07,04,06,50,21.40
2015,07,04,06,51,21.40
2015,07,04,06,52,21.40
2015,07,04,06,53,21.40
2015,07,04,06,54,21.40
2015,07,04,06,55,21.40
2015,07,04,06,56,21.40
2015,07,04,06,57,21.40
2015,07,04,06,58,21.40
2015,07,04,06,59,21.40
2015,07,04,07,00,21.40
2015,07,04,07,01,21.40
2015,07,04,07,02,21.40
2015,07,04,07,03,21.40
2015,07,04,07,04,21.40
2015,07,04,07,05,21.40
2015,07,04,07,06,21.40
2015,07,04,07,07,21.40
2015,07,04,07,08,21.50
2015,07,04,07,09,21.50
2015,07,04,07,10,21.50
2015,07,04,07,11,21.50
2015,07,04,07,12,21.60
2015,07,04,07,13,21.60
2015,07,04,07,14,21.60
2015,07,04,07,15,21.70
2015,07,04,07,16,21.70
2015,07,04,07,17,21.70
2015,07,04,07,18,21.70
2015,07,04,07,19,21.70
2015,07,04,07,20,21.80
2015,07,04,07,21,21.80
2015,07,04,07,22,21.80
2015,07,04,07,23,21.80
2015,07,04,07,24,21.80
2015,07,04,07,25,21.80
2015,07,04,07,26,21.80
2015,07,04,07,27,21.80
2015,07,04,07,28,21.80
2015,07,04,07,29,21.80
2015,07,04,07,30,21.80
2015,07,04,07,31,21.90
2015,07,04,07,32,21.90
2015,07,04,07,33,21.90
2015,07,04,07,34,21.90
2015,07,04,07,35,21.90
2015,07,04,07,36,22.00
2015,07,04,07,37,22.00
2015,07,04,07,38,22.00
2015,07,04,07,39,22.10
2015,07,04,07,40,22.10
2015,07,04,07,41,22.10
2015,07,04,07,42,22.20
2015,07,04,07,43,22.20
2015,07,04,07,44,22.20
2015,07,04,07,45,22.20
2015,07,04,07,46,22.20
2015,07,04,07,47,22.20
2015,07,04,07,48,22.30
2015,07,04,07,49,22.30
2015,07,04,07,50,22.30
2015,07,04,07,51,22.30
2015,07,04,07,52,22.30
2015,07,04,07,53,22.30
2015,07,04,07,54,22.30
2015,07,04,07,55,22.30
2015,07,04,07,56,22.30
2015,07,04,07,57,22.30
2015,07,04,07,58,22.30
2015,07,04,07,59,22.30
2015,07,04,08,00,22.30
2015,07,04,08,01,22.30
2015,07,04,08,02,22.30
2015,07,04,08,03,22.30
2015,07,04,08,04,22.30
2015,07,04,08,05,22.30
2015,07,04,08,06,22.30
2015,07,04,08,07,22.30
2015,07,04,08,08,22.40
2015,07,04,08,09,22.40
2015,07,04,08,10,22.50
2015,07,04,08,11,22.50
2015,07,04,08,12,22.50
2015,07,04,08,13,22.60
2015,07,04,08,14,22.60
2015,07,04,08,15,22.60
2015,07,04,08,16,22.60
2015,07,04,08,17,22.60
2015,07,04,08,18,22.60
2015,07,04,08,19,22.60
2015,07,04,08,20,22.60
2015,07,04,08,21,22.70
2015,07,04,08,22,22.70
2015,07,04,08,23,22.70
2015,07,04,08,24,22.70
2015,07,04,08,25,22.70
2015,07,04,08,26,22.70
2015,07,04,08,27,22.70
2015,07,04,08,28,22.80
2015,07,04,08,29,22.80
2015,07,04,08,30,22.80
2015,07,04,08,31,22.80
2015,07,04,08,32,22.90
2015,07,04,08,33,22.90
2015,07,04,08,34,22.90
2015,07,04,08,35,22.90
2015,07,04,08,36,22.90
2015,07,04,08,37,22.90
2015,07,04,08,38,22.80
2015,07,04,08,39,22.80
2015,07,04,08,40,22.80
2015,07,04,08,41,22.80
2015,07,04,08,42,22.80
2015,07,04,08,43,22.80
2015,07,04,08,44,22.80
2015,07,04,08,45,22.90
2015,07,04,08,46,22.90
2015,07,04,08,47,22.90
2015,07,04,08,48,22.90
2015,07,04,08,49,22.90
2015,07,04,08,50,22.90
2015,07,04,08,51,23.00
2015,07,04,08,52,23.10
2015,07,04,08,53,23.10
2015,07,04,08,54,23.10
2015,07,04,08,55,23.20
2015,07,04,08,56,23.20
2015,07,04,08,57,23.20
2015,07,04,08,58,23.20
2015,07,04,08,59,23.30
2015,07,04,09,00,23.30
2015,07,04,09,01,23.30
2015,07,04,09,02,23.30
2015,07,04,09,03,23.40
2015,07,04,09,04,23.40
2015,07,04,09,05,23.40
2015,07,04,09,06,23.50
2015,07,04,09,07,23.50
2015,07,04,09,08,23.60
2015,07,04,09,09,23.60
2015,07,04,09,10,23.70
2015,07,04,09,11,23.70
2015,07,04,09,12,23.70
2015,07,04,09,13,23.70
2015,07,04,09,14,23.80
2015,07,04,09,15,23.90
2015,07,04,09,16,23.90
2015,07,04,09,17,24.00
2015,07,04,09,18,24.00
2015,07,04,09,19,24.10
2015,07,04,09,20,24.10
2015,07,04,09,21,24.20
2015,07,04,09,22,24.20
2015,07,04,09,23,24.20
2015,07,04,09,24,24.20
2015,07,04,09,25,24.20
2015,07,04,09,26,24.10
2015,07,04,09,27,24.10
2015,07,04,09,28,24.20
2015,07,04,09,29,24.20
2015,07,04,09,30,24.10
2015,07,04,09,31,24.10
2015,07,04,09,32,24.20
2015,07,04,09,33,24.20
2015,07,04,09,34,24.20
2015,07,04,09,35,24.10
2015,07,04,09,36,24.10
2015,07,04,09,37,24.00
2015,07,04,09,38,24.00
2015,07,04,09,39,23.90
2015,07,04,09,40,23.90
2015,07,04,09,41,23.90
2015,07,04,09,42,23.90
2015,07,04,09,43,23.90
2015,07,04,09,44,24.00
2015,07,04,09,45,24.10
2015,07,04,09,46,24.10
2015,07,04,09,47,24.10
2015,07,04,09,48,24.10
2015,07,04,09,49,24.20
2015,07,04,09,50,24.20
2015,07,04,09,51,24.20
2015,07,04,09,52,24.30
2015,07,04,09,53,24.30
2015,07,04,09,54,24.30
2015,07,04,09,55,24.30
2015,07,04,09,56,24.30
2015,07,04,09,57,24.30
2015,07,04,09,58,24.30
2015,07,04,09,59,24.40
2015,07,04,10,00,24.50
2015,07,04,10,01,24.60
2015,07,04,10,02,24.70
2015,07,04,10,03,24.80
2015,07,04,10,04,24.90
2015,07,04,10,05,24.90
2015,07,04,10,06,24.90
2015,07,04,10,07,24.90
2015,07,04,10,08,25.00
2015,07,04,10,09,25.00
2015,07,04,10,10,24.90
2015,07,04,10,11,25.00
2015,07,04,10,12,25.00
2015,07,04,10,13,25.00
2015,07,04,10,14,25.00
2015,07,04,10,15,25.00
2015,07,04,10,16,25.10
2015,07,04,10,17,25.00
2015,07,04,10,18,25.00
2015,07,04,10,19,24.90
2015,07,04,10,20,24.80
2015,07,04,10,21,24.70
2015,07,04,10,22,24.70
2015,07,04,10,23,24.70
2015,07,04,10,24,24.70
2015,07,04,10,25,24.70
2015,07,04,10,26,24.70
2015,07,04,10,27,24.80
2015,07,04,10,28,24.80
2015,07,04,10,29,24.90
2015,07,04,10,30,24.90
2015,07,04,10,31,25.00
2015,07,04,10,32,25.00
2015,07,04,10,33,25.10
2015,07,04,10,34,25.10
2015,07,04,10,35,25.10
2015,07,04,10,36,25.10
2015,07,04,10,37,25.10
2015,07,04,10,38,25.00
2015,07,04,10,39,25.00
2015,07,04,10,40,25.10
2015,07,04,10,41,25.10
2015,07,04,10,42,25.10
2015,07,04,10,43,25.10
2015,07,04,10,44,25.10
2015,07,04,10,45,25.10
2015,07,04,10,46,25.00
2015,07,04,10,47,25.00
2015,07,04,10,48,25.00
2015,07,04,10,49,24.90
2015,07,04,10,50,25.00
2015,07,04,10,51,25.00
2015,07,04,10,52,24.90
2015,07,04,10,53,24.90
2015,07,04,10,54,24.90
2015,07,04,10,55,24.80
2015,07,04,10,56,24.80
2015,07,04,10,57,24.90
2015,07,04,10,58,24.90
2015,07,04,10,59,24.90
2015,07,04,11,00,24.90
2015,07,04,11,01,24.90
2015,07,04,11,02,24.90
2015,07,04,11,03,25.00
2015,07,04,11,04,24.90
2015,07,04,11,05,24.90
2015,07,04,11,06,24.90
2015,07,04,11,07,25.00
2015,07,04,11,08,25.10
2015,07,04,11,09,25.20
2015,07,04,11,10,25.20
2015,07,04,11,11,25.20
2015,07,04,11,12,25.20
2015,07,04,11,13,25.20
2015,07,04,11,14,25.20
2015,07,04,11,15,25.10
2015,07,04,11,16,25.10
2015,07,04,11,17,25.20
2015,07,04,11,18,25.20
2015,07,04,11,19,25.20
2015,07,04,11,20,25.20
2015,07,04,11,21,25.20
2015,07,04,11,22,25.30
2015,07,04,11,23,25.40
2015,07,04,11,24,25.50
2015,07,04,11,25,25.60
2015,07,04,11,26,25.70
2015,07,04,11,27,25.80
2015,07,04,11,28,25.90
2015,07,04,11,29,26.00
2015,07,04,11,30,26.00
2015,07,04,11,31,26.00
2015,07,04,11,32,26.10
2015,07,04,11,33,26.00
2015,07,04,11,34,26.00
2015,07,04,11,35,25.90
2015,07,04,11,36,25.90
2015,07,04,11,37,25.90
2015,07,04,11,38,25.90
2015,07,04,11,39,26.00
2015,07,04,11,40,26.00
2015,07,04,11,41,25.90
2015,07,04,11,42,25.80
2015,07,04,11,43,25.80
2015,07,04,11,44,25.70
2015,07,04,11,45,25.70
2015,07,04,11,46,25.70
2015,07,04,11,47,25.80
2015,07,04,11,48,25.90
2015,07,04,11,49,25.90
2015,07,04,11,50,26.00
2015,07,04,11,51,26.10
2015,07,04,11,52,26.20
2015,07,04,11,53,26.30
2015,07,04,11,54,26.40
2015,07,04,11,55,26.50
2015,07,04,11,56,26.60
2015,07,04,11,57,26.60
2015,07,04,11,58,26.60
2015,07,04,11,59,26.50
2015,07,04,12,00,26.50
2015,07,04,12,01,26.50
2015,07,04,12,02,26.50
2015,07,04,12,03,26.40
2015,07,04,12,04,26.40
2015,07,04,12,05,26.40
2015,07,04,12,06,26.50
2015,07,04,12,07,26.60
2015,07,04,12,08,26.60
2015,07,04,12,09,26.50
2015,07,04,12,10,26.40
2015,07,04,12,11,26.40
2015,07,04,12,12,26.50
2015,07,04,12,13,26.60
2015,07,04,12,14,26.70
2015,07,04,12,15,26.70
2015,07,04,12,16,26.70
2015,07,04,12,17,26.70
2015,07,04,12,18,26.70
2015,07,04,12,19,26.80
2015,07,04,12,20,26.80
2015,07,04,12,21,26.70
2015,07,04,12,22,26.70
2015,07,04,12,23,26.70
2015,07,04,12,24,26.80
2015,07,04,12,25,26.90
2015,07,04,12,26,27.00
2015,07,04,12,27,27.10
2015,07,04,12,28,27.10
2015,07,04,12,29,27.10
2015,07,04,12,30,27.20
2015,07,04,12,31,27.20
2015,07,04,12,32,27.20
2015,07,04,12,33,27.20
2015,07,04,12,34,27.30
2015,07,04,12,35,27.30
2015,07,04,12,36,27.40
2015,07,04,12,37,27.40
2015,07,04,12,38,27.30
2015,07,04,12,39,27.30
2015,07,04,12,40,27.20
2015,07,04,12,41,27.20
2015,07,04,12,42,27.20
2015,07,04,12,43,27.20
2015,07,04,12,44,27.20
2015,07,04,12,45,27.20
2015,07,04,12,46,27.20
2015,07,04,12,47,27.20
2015,07,04,12,48,27.20
2015,07,04,12,49,27.30
2015,07,04,12,50,27.30
2015,07,04,12,51,27.20
2015,07,04,12,52,27.20
2015,07,04,12,53,27.30
2015,07,04,12,54,27.40
2015,07,04,12,55,27.40
2015,07,04,12,56,27.50
2015,07,04,12,57,27.60
2015,07,04,12,58,27.50
2015,07,04,12,59,27.50
2015,07,04,13,00,27.50
2015,07,04,13,01,27.50
2015,07,04,13,02,27.60
2015,07,04,13,03,27.60
2015,07,04,13,04,27.60
2015,07,04,13,05,27.60
2015,07,04,13,06,27.60
2015,07,04,13,07,27.60
2015,07,04,13,08,27.70
2015,07,04,13,09,27.70
2015,07,04,13,10,27.80
2015,07,04,13,11,27.80
2015,07,04,13,12,27.80
2015,07,04,13,13,27.80
2015,07,04,13,14,27.80
2015,07,04,13,15,27.80
2015,07,04,13,16,27.80
2015,07,04,13,17,27.80
2015,07,04,13,18,27.80
2015,07,04,13,19,27.80
2015,07,04,13,20,27.90
2015,07,04,13,21,27.90
2015,07,04,13,22,27.90
2015,07,04,13,23,27.90
2015,07,04,13,24,27.90
2015,07,04,13,25,27.90
2015,07,04,13,26,28.00
2015,07,04,13,27,28.00
2015,07,04,13,28,28.00
2015,07,04,13,29,28.00
2015,07,04,13,30,28.00
2015,07,04,13,31,28.00
2015,07,04,13,32,28.00
2015,07,04,13,33,28.00
2015,07,04,13,34,28.10
2015,07,04,13,35,28.10
2015,07,04,13,36,28.10
2015,07,04,13,37,28.10
2015,07,04,13,38,28.10
2015,07,04,13,39,28.20
2015,07,04,13,40,28.10
2015,07,04,13,41,28.10
2015,07,04,13,42,28.00
2015,07,04,13,43,27.90
2015,07,04,13,44,28.00
2015,07,04,13,45,28.10
2015,07,04,13,46,28.10
2015,07,04,13,47,28.20
2015,07,04,13,48,28.20
2015,07,04,13,49,28.30
2015,07,04,13,50,28.30
2015,07,04,13,51,28.20
2015,07,04,13,52,28.20
2015,07,04,13,53,28.20
2015,07,04,13,54,28.20
2015,07,04,13,55,28.20
2015,07,04,13,56,28.30
2015,07,04,13,57,28.40
2015,07,04,13,58,28.50
2015,07,04,13,59,28.60
2015,07,04,14,00,28.60
2015,07,04,14,01,28.60
2015,07,04,14,02,28.60
2015,07,04,14,03,28.70
2015,07,04,14,04,28.70
2015,07,04,14,05,28.80
2015,07,04,14,06,28.80
2015,07,04,14,07,28.90
2015,07,04,14,08,28.90
2015,07,04,14,09,29.00
2015,07,04,14,10,29.00
2015,07,04,14,11,28.90
2015,07,04,14,12,28.90
2015,07,04,14,13,28.80
2015,07,04,14,14,28.80
2015,07,04,14,15,28.70
2015,07,04,14,16,28.70
2015,07,04,14,17,28.70
2015,07,04,14,18,28.80
2015,07,04,14,19,28.80
2015,07,04,14,20,28.90
2015,07,04,14,21,28.90
2015,07,04,14,22,28.90
2015,07,04,14,23,28.80
2015,07,04,14,24,28.80
2015,07,04,14,25,28.60
2015,07,04,14,26,28.60
2015,07,04,14,27,28.70
2015,07,04,14,28,28.70
2015,07,04,14,29,28.80
2015,07,04,14,30,28.80
2015,07,04,14,31,28.70
2015,07,04,14,32,28.60
2015,07,04,14,33,28.60
2015,07,04,14,34,28.60
2015,07,04,14,35,28.60
2015,07,04,14,36,28.70
2015,07,04,14,37,28.70
2015,07,04,14,38,28.70
2015,07,04,14,39,28.80
2015,07,04,14,40,28.80
2015,07,04,14,41,28.80
2015,07,04,14,42,28.90
2015,07,04,14,43,28.90
2015,07,04,14,44,28.90
2015,07,04,14,45,28.90
2015,07,04,14,46,28.90
2015,07,04,14,47,29.00
2015,07,04,14,48,29.10
2015,07,04,14,49,29.20
2015,07,04,14,50,29.20
2015,07,04,14,51,29.20
2015,07,04,14,52,29.20
2015,07,04,14,53,29.20
2015,07,04,14,54,29.20
2015,07,04,14,55,29.30
2015,07,04,14,56,29.30
2015,07,04,14,57,29.30
2015,07,04,14,58,29.40
2015,07,04,14,59,29.40
2015,07,04,15,00,29.40
2015,07,04,15,01,29.50
2015,07,04,15,02,29.50
2015,07,04,15,03,29.50
2015,07,04,15,04,29.50
2015,07,04,15,05,29.40
2015,07,04,15,06,29.40
2015,07,04,15,07,29.30
2015,07,04,15,08,29.20
2015,07,04,15,09,29.20
2015,07,04,15,10,29.20
2015,07,04,15,11,29.20
2015,07,04,15,12,29.20
2015,07,04,15,13,29.20
2015,07,04,15,14,29.30
2015,07,04,15,15,29.30
2015,07,04,15,16,29.30
2015,07,04,15,17,29.30
2015,07,04,15,18,29.30
2015,07,04,15,19,29.30
2015,07,04,15,20,29.30
2015,07,04,15,21,29.30
2015,07,04,15,22,29.40
2015,07,04,15,23,29.40
2015,07,04,15,24,29.40
2015,07,04,15,25,29.40
2015,07,04,15,26,29.50
2015,07,04,15,27,29.40
2015,07,04,15,28,29.50
2015,07,04,15,29,29.50
2015,07,04,15,30,29.50
2015,07,04,15,31,29.60
2015,07,04,15,32,29.60
2015,07,04,15,33,29.60
2015,07,04,15,34,29.60
2015,07,04,15,35,29.50
2015,07,04,15,36,29.40
2015,07,04,15,37,29.40
2015,07,04,15,38,29.30
2015,07,04,15,39,29.30
2015,07,04,15,40,29.30
2015,07,04,15,41,29.40
2015,07,04,15,42,29.40
2015,07,04,15,43,29.50
2015,07,04,15,44,29.60
2015,07,04,15,45,29.80
2015,07,04,15,46,29.80
2015,07,04,15,47,29.70
2015,07,04,15,48,29.70
2015,07,04,15,49,29.80
2015,07,04,15,50,29.80
2015,07,04,15,51,29.80
2015,07,04,15,52,29.80
2015,07,04,15,53,29.80
2015,07,04,15,54,29.80
2015,07,04,15,55,29.80
2015,07,04,15,56,29.90
2015,07,04,15,57,29.90
2015,07,04,15,58,29.90
2015,07,04,15,59,29.90
2015,07,04,16,00,29.90
2015,07,04,16,01,29.90
2015,07,04,16,02,29.90
2015,07,04,16,03,29.90
2015,07,04,16,04,29.90
2015,07,04,16,05,30.00
2015,07,04,16,06,30.00
2015,07,04,16,07,30.00
2015,07,04,16,08,30.10
2015,07,04,16,09,30.20
2015,07,04,16,10,30.20
2015,07,04,16,11,30.20
2015,07,04,16,12,30.30
2015,07,04,16,13,30.30
2015,07,04,16,14,30.40
2015,07,04,16,15,30.40
2015,07,04,16,16,30.40
2015,07,04,16,17,30.40
2015,07,04,16,18,30.30
2015,07,04,16,19,30.30
2015,07,04,16,20,30.30
2015,07,04,16,21,30.30
2015,07,04,16,22,30.30
2015,07,04,16,23,30.20
2015,07,04,16,24,30.20
2015,07,04,16,25,30.20
2015,07,04,16,26,30.20
2015,07,04,16,27,30.20
2015,07,04,16,28,30.30
2015,07,04,16,29,30.30
2015,07,04,16,30,30.30
2015,07,04,16,31,30.40
2015,07,04,16,32,30.40
2015,07,04,16,33,30.40
2015,07,04,16,34,30.40
2015,07,04,16,35,30.40
2015,07,04,16,36,30.40
2015,07,04,16,37,30.40
2015,07,04,16,38,30.30
2015,07,04,16,39,30.30
2015,07,04,16,40,30.30
2015,07,04,16,41,30.30
2015,07,04,16,42,30.30
2015,07,04,16,43,30.40
2015,07,04,16,44,30.40
2015,07,04,16,45,30.30
2015,07,04,16,46,30.40
2015,07,04,16,47,30.30
2015,07,04,16,48,30.30
2015,07,04,16,49,30.40
2015,07,04,16,50,30.40
2015,07,04,16,51,30.40
2015,07,04,16,52,30.40
2015,07,04,16,53,30.50
2015,07,04,16,54,30.60
2015,07,04,16,55,30.60
2015,07,04,16,56,30.60
2015,07,04,16,57,30.60
2015,07,04,16,58,30.60
2015,07,04,16,59,30.60
2015,07,04,17,00,30.60
2015,07,04,17,01,30.70
2015,07,04,17,02,30.70
2015,07,04,17,03,30.60
2015,07,04,17,04,30.60
2015,07,04,17,05,30.60
2015,07,04,17,06,30.50
2015,07,04,17,07,30.50
2015,07,04,17,08,30.40
2015,07,04,17,09,30.40
2015,07,04,17,10,30.30
2015,07,04,17,11,30.30
2015,07,04,17,12,30.30
2015,07,04,17,13,30.30
2015,07,04,17,14,30.30
2015,07,04,17,15,30.30
2015,07,04,17,16,30.30
2015,07,04,17,17,30.40
2015,07,04,17,18,30.40
2015,07,04,17,19,30.50